STARLINK-34514

Last updated on Thu Jul 03 2025 00:02:07 GMT+0000 (Coordinated Universal Time)

1 64416U 25129E 25183.58335648 -.01555294 00000+0 -18459-1 0 9991 2 64416 69.9997 351.5744 0003143 265.1790 14.1238 15.63975878 3687
UTC large
Height (km)
Speed (km/s)
/
Latitude / Longitude
Inclination (degrees)
Orbital Period (minutes)
Azimuth
Elevation
Range (km)
Doppler Factor

Next 0 passes for location: London (51.5072 / 0.1276)

Sorry there are no passes over London.